This is the latest recevied weather packets stored in our database for station/object KC8ZBC. If no packets are shown the sender has not sent any weather packets the latest 1 day(s).
| Time | Temp. | Humidity | Pressure | Rain* | Wind** | Luminosity | Snow |
|---|---|---|---|---|---|---|---|
| 1836274766 | 13.89° C | 86% | 996.9 hPa | 0 mm | 0.89 m/s, 100° | 0 W/m² | - |
| 1836274464 | 13.89° C | 86% | 996.9 hPa | 0 mm | 0.89 m/s, 101° | 0 W/m² | - |
| 1836274319 | 13.89° C | 86% | 996.9 hPa | 0 mm | 0.89 m/s, 95° | 0 W/m² | - |
| 1836274163 | 13.89° C | 86% | 996.6 hPa | 0 mm | 0.89 m/s, 100° | 0 W/m² | - |
| 1778039234 | 8.89° C | 56% | 983.5 hPa | 0 mm | 0 m/s | 0 W/m² | - |
| 1778038932 | 8.89° C | 58% | 983.7 hPa | 0 mm | 0 m/s | 0 W/m² | - |
| 1778038629 | 8.89° C | 59% | 983.6 hPa | 0 mm | 0.45 m/s, 337° | 0 W/m² | - |
| 1778038326 | 8.89° C | 55% | 983.6 hPa | 0 mm | 0 m/s | 0 W/m² | - |
| 1778038023 | 8.89° C | 61% | 983.7 hPa | 0 mm | 0 m/s | 0 W/m² | - |
| 1778037720 | 8.89° C | 56% | 983.9 hPa | 0 mm | 0 m/s | 0 W/m² | - |
| 1778037417 | 8.89° C | 56% | 983.7 hPa | 0 mm | 0 m/s | 0 W/m² | - |
| 1778037114 | 8.89° C | 55% | 983.7 hPa | 0 mm | 0 m/s | 0 W/m² | - |
| 1778036812 | 8.89° C | 55% | 983.8 hPa | 0 mm | 0 m/s | 0 W/m² | - |
| 1778036509 | 9.44° C | 55% | 983.7 hPa | 0 mm | 0 m/s | 0 W/m² | - |
| 1778036206 | 9.44° C | 54% | 983.6 hPa | 0 mm | 0 m/s | 0 W/m² | - |
| 1778035902 | 9.44° C | 54% | 983.7 hPa | 0 mm | 0 m/s | 0 W/m² | - |
| 1778035600 | 9.44° C | 53% | 983.8 hPa | 0 mm | 0 m/s | 0 W/m² | - |
| 1778035296 | 9.44° C | 53% | 983.7 hPa | 0 mm | 0 m/s | 0 W/m² | - |
| 1778034992 | 9.44° C | 54% | 983.9 hPa | 0 mm | 0 m/s | 0 W/m² | - |
| 1778034689 | 9.44° C | 53% | 983.4 hPa | 0 mm | 0 m/s | 0 W/m² | - |
| 1778034387 | 9.44° C | 52% | 983.5 hPa | 0 mm | 0 m/s | 0 W/m² | - |
| 1778034084 | 9.44° C | 52% | 983.5 hPa | 0 mm | 0 m/s | 0 W/m² | - |
| 1778033782 | 9.44° C | 53% | 983.8 hPa | 0 mm | 0 m/s | 0 W/m² | - |
| 1778033479 | 10° C | 52% | 983.7 hPa | 0 mm | 0.45 m/s, 234° | 0 W/m² | - |
| 1778033176 | 10° C | 53% | 983.9 hPa | 0 mm | 0 m/s | 0 W/m² | - |
* Rain latest hour (hover to see other rain measurements)
** Current wind speed in m/s (hover to see current wind gust speed)